| time (UTC) | temp F | wind direction | speed MPH | gust MPH | rain 1hr in | rain 24hr in | rain mn in | humidity % | barometer mb |
| 20260831234003 | 69 | 237 | 1.0 | 7.0 | 0.00 | 0.58 | 0.58 | 64 | 1017.0 |
| 20260831233714 | 69 | 237 | 1.0 | 7.0 | 0.00 | 0.58 | 0.58 | 64 | 1016.9 |
| 20260831233003 | 69 | 244 | 1.0 | 6.0 | 0.01 | 0.58 | 0.58 | 64 | 1016.9 |
| 20260831232503 | 69 | 256 | 0.0 | 6.0 | 0.01 | 0.58 | 0.58 | 64 | 1017.0 |
| 20260831232003 | 69 | 249 | 0.0 | 6.0 | 0.01 | 0.58 | 0.58 | 64 | 1017.0 |
| 20260831231503 | 69 | 194 | 0.0 | 1.0 | 0.01 | 0.58 | 0.58 | 64 | 1016.9 |
| 20260831231003 | 69 | 194 | 0.0 | 2.0 | 0.01 | 0.58 | 0.58 | 64 | 1017.0 |
| 20260831230503 | 69 | 199 | 1.0 | 3.0 | 0.01 | 0.58 | 0.58 | 65 | 1016.9 |
| 20260831230003 | 69 | 206 | 1.0 | 3.0 | 0.01 | 0.58 | 0.58 | 64 | 1017.0 |
| 20260831225003 | 68 | 210 | 0.0 | 2.0 | 0.01 | 0.58 | 0.58 | 64 | 1017.1 |
| 20260831224503 | 69 | 0 | 0.0 | 0.0 | 0.01 | 0.58 | 0.58 | 64 | 1017.2 |
| 20260831224003 | 69 | 0 | 0.0 | 0.0 | 0.01 | 0.58 | 0.58 | 64 | 1017.2 |
| 20260831223503 | 69 | 0 | 0.0 | 0.0 | 0.01 | 0.58 | 0.58 | 64 | 1017.3 |
| 20260831223214 | 69 | 0 | 0.0 | 0.0 | 0.01 | 0.58 | 0.58 | 64 | 1017.3 |
| 20260831222503 | 69 | 0 | 0.0 | 0.0 | 0.00 | 0.57 | 0.57 | 64 | 1017.3 |
| 20260831222003 | 69 | 0 | 0.0 | 0.0 | 0.00 | 0.57 | 0.57 | 64 | 1017.3 |
| 20260831221713 | 69 | 0 | 0.0 | 0.0 | 0.00 | 0.57 | 0.57 | 64 | 1017.2 |
| 20260831221003 | 69 | 0 | 0.0 | 0.0 | 0.00 | 0.57 | 0.57 | 64 | 1017.3 |
| 20260831220503 | 69 | 210 | 0.0 | 1.0 | 0.00 | 0.57 | 0.57 | 64 | 1017.2 |
| 20260831220214 | 69 | 210 | 0.0 | 2.0 | 0.00 | 0.57 | 0.57 | 64 | 1017.3 |
| 20260831215503 | 69 | 210 | 0.0 | 3.0 | 0.00 | 0.57 | 0.57 | 64 | 1017.4 |
| 20260831215003 | 69 | 207 | 1.0 | 3.0 | 0.00 | 0.57 | 0.57 | 64 | 1017.2 |
| 20260831214503 | 69 | 196 | 2.0 | 4.0 | 0.00 | 0.57 | 0.57 | 64 | 1017.3 |
| 20260831214214 | 69 | 191 | 2.0 | 4.0 | 0.00 | 0.57 | 0.57 | 64 | 1017.3 |
| 20260831213503 | 69 | 192 | 2.0 | 5.0 | 0.00 | 0.57 | 0.57 | 64 | 1017.4 |
| 20260831213003 | 69 | 207 | 1.0 | 3.0 | 0.00 | 0.57 | 0.57 | 64 | 1017.5 |
| 20260831212503 | 69 | 216 | 1.0 | 3.0 | 0.00 | 0.57 | 0.57 | 64 | 1017.5 |
| 20260831212003 | 69 | 208 | 0.0 | 3.0 | 0.00 | 0.57 | 0.57 | 64 | 1017.6 |
| 20260831211503 | 69 | 203 | 1.0 | 4.0 | 0.01 | 0.57 | 0.57 | 64 | 1017.5 |
| 20260831211003 | 69 | 195 | 1.0 | 4.0 | 0.02 | 0.57 | 0.57 | 64 | 1017.6 |
| 20260831210503 | 69 | 188 | 1.0 | 3.0 | 0.03 | 0.57 | 0.57 | 64 | 1017.5 |
| 20260831210003 | 69 | 179 | 1.0 | 3.0 | 0.04 | 0.57 | 0.57 | 64 | 1017.6 |
| 20260831205503 | 69 | 182 | 1.0 | 3.0 | 0.04 | 0.57 | 0.57 | 64 | 1017.5 |
| 20260831205003 | 68 | 179 | 2.0 | 6.0 | 0.07 | 0.57 | 0.57 | 64 | 1017.5 |
| 20260831204503 | 68 | 175 | 2.0 | 6.0 | 0.09 | 0.57 | 0.57 | 64 | 1017.5 |
| 20260831204003 | 68 | 172 | 1.0 | 5.0 | 0.10 | 0.57 | 0.57 | 64 | 1017.6 |
| 20260831203503 | 68 | 167 | 1.0 | 4.0 | 0.10 | 0.57 | 0.57 | 64 | 1017.6 |
| 20260831203003 | 68 | 167 | 2.0 | 5.0 | 0.10 | 0.57 | 0.57 | 64 | 1017.6 |
| 20260831202503 | 68 | 166 | 1.0 | 6.0 | 0.10 | 0.57 | 0.57 | 64 | 1017.8 |
| 20260831202003 | 68 | 157 | 1.0 | 6.0 | 0.10 | 0.57 | 0.57 | 64 | 1017.8 |
| 20260831201503 | 68 | 150 | 1.0 | 4.0 | 0.09 | 0.56 | 0.56 | 64 | 1017.8 |
| 20260831201003 | 68 | 160 | 1.0 | 4.0 | 0.08 | 0.55 | 0.55 | 64 | 1017.7 |
| 20260831200714 | 68 | 169 | 2.0 | 4.0 | 0.08 | 0.55 | 0.55 | 64 | 1017.8 |
| 20260831200003 | 67 | 163 | 3.0 | 6.0 | 0.06 | 0.53 | 0.53 | 64 | 1017.9 |
| 20260831195714 | 67 | 167 | 3.0 | 6.0 | 0.06 | 0.53 | 0.53 | 64 | 1017.8 |
| 20260831195003 | 67 | 198 | 2.0 | 6.0 | 0.03 | 0.50 | 0.50 | 63 | 1018.0 |
| 20260831194503 | 67 | 189 | 3.0 | 8.0 | 0.01 | 0.48 | 0.48 | 63 | 1018.0 |
| 20260831194003 | 67 | 186 | 4.0 | 8.0 | 0.00 | 0.47 | 0.47 | 63 | 1018.0 |
| 20260831193503 | 67 | 188 | 4.0 | 8.0 | 0.00 | 0.47 | 0.47 | 63 | 1018.1 |
| 20260831193003 | 67 | 187 | 4.0 | 9.0 | 0.00 | 0.47 | 0.47 | 63 | 1018.0 |
| 20260831192503 | 67 | 180 | 3.0 | 9.0 | 0.00 | 0.47 | 0.47 | 64 | 1018.1 |
| 20260831192003 | 67 | 178 | 3.0 | 8.0 | 0.00 | 0.47 | 0.47 | 64 | 1018.0 |
| 20260831191714 | 67 | 186 | 2.0 | 8.0 | 0.00 | 0.47 | 0.47 | 64 | 1018.0 |
| 20260831191003 | 67 | 178 | 3.0 | 9.0 | 0.01 | 0.47 | 0.47 | 64 | 1018.0 |
| 20260831190503 | 67 | 184 | 4.0 | 11.0 | 0.02 | 0.47 | 0.47 | 65 | 1018.0 |
| 20260831190003 | 66 | 190 | 4.0 | 11.0 | 0.04 | 0.47 | 0.47 | 64 | 1018.0 |
| 20260831185503 | 66 | 193 | 4.0 | 9.0 | 0.05 | 0.47 | 0.47 | 64 | 1017.9 |
| 20260831185003 | 66 | 192 | 5.0 | 8.0 | 0.07 | 0.47 | 0.47 | 64 | 1018.0 |
| 20260831184503 | 66 | 194 | 5.0 | 8.0 | 0.09 | 0.47 | 0.47 | 64 | 1018.1 |
| 20260831184003 | 66 | 204 | 4.0 | 9.0 | 0.10 | 0.47 | 0.47 | 64 | 1018.2 |
| 20260831183714 | 66 | 206 | 5.0 | 9.0 | 0.11 | 0.47 | 0.47 | 64 | 1018.2 |
| 20260831183213 | 65 | 200 | 5.0 | 13.0 | 0.12 | 0.47 | 0.47 | 64 | 1018.2 |
| 20260831182714 | 65 | 188 | 5.0 | 13.0 | 0.12 | 0.47 | 0.47 | 64 | 1018.2 |
| 20260831182003 | 66 | 181 | 3.0 | 8.0 | 0.14 | 0.47 | 0.47 | 64 | 1018.2 |
| 20260831181503 | 66 | 191 | 3.0 | 8.0 | 0.17 | 0.47 | 0.47 | 64 | 1018.4 |
| 20260831181003 | 66 | 197 | 4.0 | 10.0 | 0.17 | 0.46 | 0.46 | 64 | 1018.4 |
| 20260831180503 | 66 | 193 | 5.0 | 10.0 | 0.17 | 0.45 | 0.45 | 64 | 1018.5 |
| 20260831180003 | 66 | 192 | 4.0 | 10.0 | 0.16 | 0.43 | 0.43 | 64 | 1018.4 |
| 20260831175713 | 66 | 196 | 4.0 | 10.0 | 0.15 | 0.42 | 0.42 | 63 | 1018.5 |
| 20260831175003 | 66 | 180 | 4.0 | 9.0 | 0.14 | 0.40 | 0.40 | 64 | 1018.7 |
| 20260831174503 | 66 | 178 | 4.0 | 9.0 | 0.12 | 0.38 | 0.38 | 63 | 1018.5 |
| 20260831174212 | 66 | 175 | 4.0 | 8.0 | 0.12 | 0.38 | 0.38 | 63 | 1018.8 |
| 20260831173503 | 66 | 182 | 4.0 | 8.0 | 0.11 | 0.36 | 0.36 | 63 | 1018.8 |
| 20260831173003 | 66 | 185 | 3.0 | 8.0 | 0.11 | 0.35 | 0.35 | 63 | 1018.7 |
| 20260831172713 | 66 | 187 | 3.0 | 8.0 | 0.11 | 0.35 | 0.35 | 63 | 1018.7 |
| 20260831172003 | 66 | 189 | 3.0 | 6.0 | 0.09 | 0.33 | 0.33 | 63 | 1018.9 |
| 20260831171713 | 66 | 186 | 3.0 | 7.0 | 0.07 | 0.31 | 0.31 | 63 | 1018.8 |
| 20260831171003 | 66 | 191 | 3.0 | 8.0 | 0.05 | 0.29 | 0.29 | 63 | 1019.0 |
| 20260831170503 | 66 | 195 | 3.0 | 8.0 | 0.04 | 0.28 | 0.28 | 63 | 1019.1 |
| 20260831170003 | 66 | 192 | 2.0 | 6.0 | 0.03 | 0.27 | 0.27 | 63 | 1019.2 |
| 20260831165503 | 66 | 187 | 3.0 | 8.0 | 0.04 | 0.27 | 0.27 | 63 | 1019.2 |
| 20260831165003 | 66 | 187 | 3.0 | 8.0 | 0.03 | 0.26 | 0.26 | 63 | 1019.1 |
| 20260831164503 | 66 | 188 | 3.0 | 8.0 | 0.03 | 0.26 | 0.26 | 63 | 1019.1 |
| 20260831164003 | 66 | 185 | 4.0 | 9.0 | 0.02 | 0.25 | 0.25 | 63 | 1019.2 |
| 20260831163503 | 66 | 181 | 5.0 | 9.0 | 0.03 | 0.25 | 0.25 | 63 | 1019.2 |
| 20260831163003 | 66 | 183 | 4.0 | 8.0 | 0.02 | 0.24 | 0.24 | 63 | 1019.3 |
| 20260831162503 | 66 | 183 | 3.0 | 8.0 | 0.03 | 0.24 | 0.24 | 63 | 1019.3 |
| 20260831162003 | 66 | 163 | 3.0 | 9.0 | 0.04 | 0.24 | 0.24 | 63 | 1019.4 |
| 20260831161713 | 66 | 165 | 3.0 | 9.0 | 0.05 | 0.24 | 0.24 | 64 | 1019.6 |
| 20260831161003 | 66 | 188 | 3.0 | 8.0 | 0.07 | 0.24 | 0.24 | 63 | 1019.6 |
| 20260831160503 | 66 | 182 | 4.0 | 8.0 | 0.08 | 0.24 | 0.24 | 63 | 1019.7 |
| 20260831160003 | 67 | 183 | 4.0 | 8.0 | 0.08 | 0.24 | 0.24 | 64 | 1019.7 |
| 20260831155503 | 66 | 195 | 3.0 | 8.0 | 0.07 | 0.23 | 0.23 | 64 | 1019.7 |
| 20260831155003 | 66 | 189 | 3.0 | 10.0 | 0.07 | 0.23 | 0.23 | 63 | 1019.7 |
| 20260831154503 | 66 | 190 | 2.0 | 10.0 | 0.08 | 0.23 | 0.23 | 64 | 1019.8 |
| 20260831154003 | 66 | 200 | 2.0 | 7.0 | 0.08 | 0.23 | 0.23 | 64 | 1019.7 |
| 20260831153503 | 66 | 193 | 4.0 | 10.0 | 0.07 | 0.22 | 0.22 | 64 | 1019.8 |
| 20260831153003 | 66 | 195 | 4.0 | 10.0 | 0.07 | 0.22 | 0.22 | 63 | 1019.8 |
| 20260831152712 | 66 | 200 | 3.0 | 10.0 | 0.06 | 0.21 | 0.21 | 63 | 1019.8 |
| 20260831152003 | 66 | 206 | 3.0 | 8.0 | 0.07 | 0.20 | 0.20 | 64 | 1019.6 |
| 20260831151503 | 66 | 182 | 3.0 | 8.0 | 0.06 | 0.18 | 0.18 | 64 | 1019.7 |
| 20260831151003 | 66 | 162 | 3.0 | 7.0 | 0.07 | 0.17 | 0.17 | 63 | 1019.7 |
| 20260831150503 | 66 | 176 | 3.0 | 8.0 | 0.08 | 0.16 | 0.16 | 64 | 1019.7 |
| 20260831150003 | 66 | 180 | 3.0 | 8.0 | 0.09 | 0.16 | 0.16 | 63 | 1019.8 |
| 20260831145503 | 65 | 168 | 2.0 | 5.0 | 0.09 | 0.16 | 0.16 | 63 | 1019.8 |
| 20260831145213 | 65 | 169 | 2.0 | 5.0 | 0.09 | 0.16 | 0.16 | 64 | 1019.8 |
| 20260831144503 | 65 | 182 | 2.0 | 5.0 | 0.08 | 0.15 | 0.15 | 63 | 1019.7 |
| 20260831144003 | 65 | 191 | 3.0 | 6.0 | 0.08 | 0.15 | 0.15 | 63 | 1019.7 |
| 20260831143503 | 65 | 203 | 3.0 | 7.0 | 0.08 | 0.15 | 0.15 | 63 | 1019.7 |
| 20260831143003 | 65 | 206 | 1.0 | 7.0 | 0.08 | 0.15 | 0.15 | 63 | 1019.7 |
| 20260831142503 | 65 | 200 | 1.0 | 7.0 | 0.08 | 0.15 | 0.15 | 63 | 1019.8 |
| 20260831142003 | 65 | 188 | 2.0 | 7.0 | 0.06 | 0.13 | 0.13 | 63 | 1019.4 |
| 20260831141714 | 65 | 184 | 2.0 | 7.0 | 0.05 | 0.12 | 0.12 | 63 | 1019.4 |
| 20260831141003 | 65 | 192 | 1.0 | 5.0 | 0.03 | 0.10 | 0.10 | 63 | 1019.7 |
| 20260831140503 | 65 | 190 | 0.0 | 5.0 | 0.01 | 0.08 | 0.08 | 63 | 1019.6 |
| 20260831140003 | 65 | 178 | 0.0 | 1.0 | 0.00 | 0.07 | 0.07 | 63 | 1019.7 |
| 20260831135503 | 65 | 178 | 0.0 | 2.0 | 0.00 | 0.07 | 0.07 | 63 | 1019.7 |
| 20260831135003 | 65 | 176 | 1.0 | 4.0 | 0.00 | 0.07 | 0.07 | 63 | 1019.4 |
| 20260831134503 | 65 | 174 | 1.0 | 4.0 | 0.00 | 0.07 | 0.07 | 63 | 1019.5 |
| 20260831134003 | 65 | 188 | 1.0 | 4.0 | 0.00 | 0.07 | 0.07 | 63 | 1019.7 |
| 20260831133503 | 65 | 196 | 2.0 | 6.0 | 0.00 | 0.07 | 0.07 | 64 | 1019.6 |
| 20260831133003 | 64 | 194 | 3.0 | 6.0 | 0.00 | 0.07 | 0.07 | 64 | 1019.6 |
| 20260831132503 | 64 | 186 | 3.0 | 7.0 | 0.00 | 0.07 | 0.07 | 64 | 1019.4 |
| 20260831132003 | 64 | 176 | 3.0 | 7.0 | 0.00 | 0.07 | 0.07 | 64 | 1019.5 |
| 20260831131503 | 64 | 180 | 2.0 | 7.0 | 0.00 | 0.07 | 0.07 | 64 | 1019.4 |
| 20260831131003 | 64 | 194 | 2.0 | 6.0 | 0.00 | 0.07 | 0.07 | 64 | 1019.7 |
| 20260831130503 | 64 | 195 | 2.0 | 6.0 | 0.00 | 0.07 | 0.07 | 64 | 1019.5 |
| 20260831130003 | 64 | 191 | 2.0 | 8.0 | 0.00 | 0.07 | 0.07 | 64 | 1019.6 |
| 20260831125503 | 64 | 195 | 2.0 | 8.0 | 0.00 | 0.07 | 0.07 | 64 | 1019.6 |
| 20260831125003 | 64 | 203 | 2.0 | 6.0 | 0.00 | 0.07 | 0.07 | 64 | 1019.6 |
| 20260831124503 | 64 | 201 | 3.0 | 8.0 | 0.00 | 0.07 | 0.07 | 64 | 1019.6 |
| 20260831124003 | 64 | 196 | 3.0 | 8.0 | 0.00 | 0.07 | 0.07 | 64 | 1019.6 |
| 20260831123503 | 64 | 197 | 2.0 | 8.0 | 0.00 | 0.07 | 0.07 | 64 | 1019.6 |
| 20260831123003 | 64 | 198 | 2.0 | 8.0 | 0.00 | 0.07 | 0.07 | 64 | 1019.6 |
| 20260831122503 | 64 | 198 | 2.0 | 5.0 | 0.00 | 0.07 | 0.07 | 64 | 1019.6 |
| 20260831122212 | 64 | 196 | 1.0 | 5.0 | 0.00 | 0.07 | 0.07 | 64 | 1019.6 |
| 20260831121503 | 64 | 200 | 1.0 | 4.0 | 0.00 | 0.07 | 0.07 | 64 | 1019.7 |
| 20260831121212 | 64 | 205 | 0.0 | 2.0 | 0.00 | 0.07 | 0.07 | 64 | 1019.6 |
| 20260831120503 | 64 | 206 | 1.0 | 3.0 | 0.00 | 0.07 | 0.07 | 64 | 1019.7 |
| 20260831120003 | 64 | 200 | 2.0 | 4.0 | 0.00 | 0.07 | 0.07 | 63 | 1019.8 |
| 20260831115713 | 64 | 200 | 2.0 | 4.0 | 0.00 | 0.07 | 0.07 | 63 | 1019.9 |
| 20260831115003 | 64 | 201 | 2.0 | 5.0 | 0.01 | 0.07 | 0.07 | 63 | 1019.9 |
| 20260831114503 | 64 | 207 | 2.0 | 5.0 | 0.01 | 0.07 | 0.07 | 63 | 1020.0 |
| 20260831114003 | 64 | 221 | 1.0 | 4.0 | 0.01 | 0.07 | 0.07 | 63 | 1020.0 |
| 20260831113503 | 64 | 233 | 0.0 | 3.0 | 0.01 | 0.07 | 0.07 | 63 | 1020.0 |
| 20260831113003 | 64 | 233 | 0.0 | 2.0 | 0.01 | 0.07 | 0.07 | 63 | 1020.1 |
| 20260831112503 | 64 | 233 | 0.0 | 2.0 | 0.01 | 0.07 | 0.07 | 63 | 1020.1 |
| 20260831112003 | 64 | 205 | 0.0 | 2.0 | 0.02 | 0.07 | 0.07 | 63 | 1019.9 |
| 20260831111713 | 64 | 196 | 0.0 | 2.0 | 0.02 | 0.07 | 0.07 | 63 | 1020.0 |
| 20260831111003 | 64 | 195 | 0.0 | 2.0 | 0.02 | 0.07 | 0.07 | 63 | 1020.1 |
| 20260831110713 | 64 | 0 | 0.0 | 0.0 | 0.03 | 0.07 | 0.07 | 62 | 1019.9 |
| 20260831110003 | 64 | 0 | 0.0 | 0.0 | 0.03 | 0.07 | 0.07 | 62 | 1019.9 |
| 20260831105503 | 64 | 0 | 0.0 | 0.0 | 0.04 | 0.07 | 0.07 | 62 | 1019.9 |
| 20260831105214 | 64 | 0 | 0.0 | 0.0 | 0.03 | 0.06 | 0.06 | 62 | 1019.9 |
| 20260831104503 | 64 | 0 | 0.0 | 0.0 | 0.04 | 0.06 | 0.06 | 62 | 1019.9 |
| 20260831104003 | 64 | 0 | 0.0 | 0.0 | 0.04 | 0.06 | 0.06 | 62 | 1020.0 |
| 20260831103503 | 64 | 0 | 0.0 | 0.0 | 0.04 | 0.06 | 0.06 | 61 | 1019.9 |
| 20260831103003 | 64 | 0 | 0.0 | 0.0 | 0.04 | 0.06 | 0.06 | 61 | 1019.9 |
| 20260831102503 | 64 | 0 | 0.0 | 0.0 | 0.04 | 0.06 | 0.06 | 61 | 1019.8 |
| 20260831102003 | 64 | 0 | 0.0 | 0.0 | 0.04 | 0.05 | 0.05 | 61 | 1019.8 |
| 20260831101503 | 64 | 0 | 0.0 | 0.0 | 0.04 | 0.05 | 0.05 | 61 | 1019.8 |
| 20260831101003 | 64 | 0 | 0.0 | 0.0 | 0.05 | 0.05 | 0.05 | 61 | 1019.8 |
| 20260831100503 | 64 | 0 | 0.0 | 0.0 | 0.04 | 0.04 | 0.04 | 60 | 1019.9 |
| 20260831100003 | 64 | 0 | 0.0 | 0.0 | 0.04 | 0.04 | 0.04 | 60 | 1019.9 |
| 20260831095503 | 64 | 0 | 0.0 | 0.0 | 0.03 | 0.03 | 0.03 | 60 | 1019.8 |
| 20260831095003 | 64 | 0 | 0.0 | 0.0 | 0.03 | 0.03 | 0.03 | 59 | 1019.9 |
| 20260831094503 | 64 | 0 | 0.0 | 0.0 | 0.02 | 0.02 | 0.02 | 59 | 1019.9 |
| 20260831094003 | 64 | 0 | 0.0 | 0.0 | 0.02 | 0.02 | 0.02 | 59 | 1019.8 |
| 20260831093503 | 64 | 0 | 0.0 | 0.0 | 0.02 | 0.02 | 0.02 | 58 | 1019.8 |
| 20260831093213 | 64 | 0 | 0.0 | 0.0 | 0.02 | 0.02 | 0.02 | 58 | 1019.8 |
| 20260831092503 | 64 | 258 | 0.0 | 1.0 | 0.02 | 0.02 | 0.02 | 58 | 1019.9 |
| 20260831092003 | 64 | 260 | 0.0 | 2.0 | 0.01 | 0.01 | 0.01 | 57 | 1019.8 |
| 20260831091503 | 64 | 261 | 0.0 | 2.0 | 0.01 | 0.01 | 0.01 | 57 | 1019.8 |
| 20260831091003 | 64 | 259 | 0.0 | 2.0 | 0.00 | 0.00 | 0.00 | 57 | 1019.8 |
| 20260831090503 | 64 | 258 | 0.0 | 2.0 | 0.00 | 0.00 | 0.00 | 57 | 1019.8 |
| 20260831090003 | 64 | 252 | 0.0 | 2.0 | 0.00 | 0.00 | 0.00 | 57 | 1019.9 |
| 20260831085503 | 64 | 252 | 0.0 | 2.0 | 0.00 | 0.00 | 0.00 | 57 | 1019.9 |
| 20260831085003 | 64 | 240 | 0.0 | 2.0 | 0.00 | 0.00 | 0.00 | 56 | 1020.0 |
| 20260831084503 | 64 | 228 | 0.0 | 3.0 | 0.00 | 0.00 | 0.00 | 56 | 1020.0 |
| 20260831084003 | 64 | 245 | 1.0 | 3.0 | 0.00 | 0.00 | 0.00 | 56 | 1019.9 |
| 20260831083503 | 64 | 254 | 0.0 | 4.0 | 0.00 | 0.00 | 0.00 | 57 | 1020.0 |
| 20260831083003 | 64 | 249 | 0.0 | 4.0 | 0.00 | 0.00 | 0.00 | 57 | 1020.0 |
| 20260831082503 | 64 | 0 | 0.0 | 0.0 | 0.00 | 0.00 | 0.00 | 57 | 1020.1 |
| 20260831082003 | 64 | 0 | 0.0 | 0.0 | 0.00 | 0.00 | 0.00 | 57 | 1020.0 |
| 20260831081503 | 64 | 0 | 0.0 | 0.0 | 0.00 | 0.00 | 0.00 | 57 | 1020.0 |
| 20260831081003 | 64 | 0 | 0.0 | 0.0 | 0.00 | 0.00 | 0.00 | 57 | 1020.0 |
| 20260831080503 | 64 | 0 | 0.0 | 0.0 | 0.00 | 0.00 | 0.00 | 57 | 1019.8 |
| 20260831080003 | 64 | 0 | 0.0 | 0.0 | 0.00 | 0.00 | 0.00 | 57 | 1019.7 |
| 20260831075503 | 64 | 0 | 0.0 | 0.0 | 0.00 | 0.00 | 0.00 | 57 | 1019.7 |
| 20260831075003 | 64 | 0 | 0.0 | 0.0 | 0.00 | 0.00 | 0.00 | 57 | 1019.9 |
| 20260831074503 | 64 | 0 | 0.0 | 0.0 | 0.00 | 0.00 | 0.00 | 57 | 1020.0 |
| 20260831074003 | 64 | 0 | 0.0 | 0.0 | 0.00 | 0.00 | 0.00 | 57 | 1019.9 |
| 20260831073503 | 64 | 0 | 0.0 | 0.0 | 0.00 | 0.00 | 0.00 | 57 | 1019.9 |
| 20260831073003 | 64 | 0 | 0.0 | 0.0 | 0.00 | 0.00 | 0.00 | 57 | 1020.0 |
| 20260831072503 | 64 | 214 | 0.0 | 2.0 | 0.00 | 0.00 | 0.00 | 57 | 1020.0 |
| 20260831072004 | 64 | 214 | 0.0 | 2.0 | 0.00 | 0.00 | 0.00 | 57 | 1020.1 |
| 20260831071713 | 64 | 198 | 0.0 | 2.0 | 0.00 | 0.00 | 0.00 | 57 | 1020.1 |
| 20260831071003 | 64 | 0 | 0.0 | 0.0 | 0.00 | 0.00 | 0.00 | 57 | 1020.0 |
| 20260831070503 | 64 | 0 | 0.0 | 0.0 | 0.00 | 0.00 | 0.00 | 56 | 1020.0 |
| 20260831070003 | 64 | 196 | 0.0 | 2.0 | 0.00 | 0.00 | 0.00 | 56 | 1020.1 |
| 20260831065503 | 64 | 196 | 0.0 | 2.0 | 0.00 | 0.00 | 0.00 | 56 | 1020.2 |
| 20260831065003 | 64 | 0 | 0.0 | 0.0 | 0.00 | 0.00 | 0.00 | 56 | 1020.2 |
| 20260831064503 | 64 | 0 | 0.0 | 0.0 | 0.00 | 0.00 | 0.00 | 56 | 1020.1 |
| 20260831064003 | 64 | 115 | 0.0 | 3.0 | 0.00 | 0.00 | 0.00 | 56 | 1020.1 |
| 20260831063503 | 64 | 128 | 1.0 | 3.0 | 0.00 | 0.00 | 0.00 | 56 | 1020.1 |
| 20260831063003 | 64 | 265 | 1.0 | 4.0 | 0.00 | 0.00 | 0.00 | 56 | 1019.9 |
| 20260831062713 | 64 | 275 | 2.0 | 4.0 | 0.00 | 0.00 | 0.00 | 56 | 1020.0 |
| 20260831062003 | 64 | 274 | 2.0 | 4.0 | 0.00 | 0.00 | 0.00 | 56 | 1020.0 |
| 20260831061503 | 64 | 273 | 1.0 | 4.0 | 0.00 | 0.00 | 0.00 | 57 | 1020.2 |
| 20260831061003 | 64 | 264 | 0.0 | 4.0 | 0.00 | 0.00 | 0.00 | 57 | 1020.2 |
| 20260831060503 | 64 | 0 | 0.0 | 0.0 | 0.00 | 0.00 | 0.00 | 57 | 1020.3 |
| 20260831060214 | 64 | 0 | 0.0 | 0.0 | 0.00 | 0.00 | 0.00 | 56 | 1020.2 |
| 20260831055503 | 64 | 0 | 0.0 | 0.0 | 0.00 | 0.00 | 0.00 | 56 | 1020.3 |
| 20260831055003 | 64 | 0 | 0.0 | 0.0 | 0.00 | 0.00 | 0.00 | 57 | 1020.3 |
| 20260831054503 | 64 | 318 | 0.0 | 3.0 | 0.00 | 0.00 | 0.00 | 57 | 1020.3 |
| 20260831054003 | 63 | 319 | 1.0 | 3.0 | 0.00 | 0.00 | 0.00 | 57 | 1020.3 |
| 20260831053503 | 63 | 319 | 0.0 | 2.0 | 0.00 | 0.00 | 0.00 | 56 | 1020.3 |
| 20260831053003 | 63 | 319 | 0.0 | 1.0 | 0.00 | 0.00 | 0.00 | 56 | 1020.3 |
| 20260831052503 | 63 | 0 | 0.0 | 0.0 | 0.00 | 0.00 | 0.00 | 56 | 1020.4 |
| 20260831052003 | 63 | 0 | 0.0 | 0.0 | 0.00 | 0.00 | 0.00 | 57 | 1020.5 |
| 20260831051503 | 63 | 0 | 0.0 | 0.0 | 0.00 | 0.00 | 0.00 | 57 | 1020.6 |
| 20260831051003 | 63 | 0 | 0.0 | 0.0 | 0.00 | 0.00 | 0.00 | 57 | 1020.6 |
| 20260831050503 | 63 | 0 | 0.0 | 0.0 | 0.00 | 0.00 | 0.00 | 57 | 1020.6 |
| 20260831050003 | 63 | 0 | 0.0 | 0.0 | 0.00 | 0.00 | 0.00 | 57 | 1020.8 |
| 20260831045503 | 63 | 0 | 0.0 | 0.0 | 0.00 | 0.00 | 0.00 | 57 | 1020.8 |
| 20260831045003 | 63 | 0 | 0.0 | 0.0 | 0.00 | 0.00 | 0.00 | 57 | 1020.8 |
| 20260831044712 | 63 | 0 | 0.0 | 0.0 | 0.00 | 0.00 | 0.00 | 57 | 1020.8 |
| 20260831044003 | 63 | 0 | 0.0 | 0.0 | 0.00 | 0.00 | 0.00 | 57 | 1020.8 |
| 20260831043503 | 63 | 0 | 0.0 | 0.0 | 0.00 | 0.00 | 0.00 | 57 | 1020.8 |
| 20260831043003 | 63 | 0 | 0.0 | 0.0 | 0.00 | 0.00 | 0.00 | 57 | 1020.8 |
| 20260831042503 | 63 | 0 | 0.0 | 0.0 | 0.00 | 0.00 | 0.00 | 57 | 1020.8 |
| 20260831042003 | 63 | 321 | 0.0 | 1.0 | 0.00 | 0.00 | 0.00 | 57 | 1020.6 |
| 20260831041503 | 63 | 321 | 0.0 | 1.0 | 0.00 | 0.00 | 0.00 | 57 | 1020.5 |
| 20260831041003 | 63 | 0 | 0.0 | 0.0 | 0.00 | 0.00 | 0.00 | 57 | 1020.5 |
| 20260831040503 | 63 | 0 | 0.0 | 0.0 | 0.00 | 0.00 | 0.00 | 57 | 1020.5 |
| 20260831040213 | 63 | 0 | 0.0 | 0.0 | 0.00 | 0.00 | 0.00 | 57 | 1020.6 |
| 20260831035503 | 63 | 0 | 0.0 | 0.0 | 0.00 | 0.00 | 0.00 | 57 | 1020.6 |
| 20260831035003 | 63 | 321 | 0.0 | 1.0 | 0.00 | 0.00 | 0.00 | 57 | 1020.5 |
| 20260831034712 | 63 | 321 | 0.0 | 1.0 | 0.00 | 0.00 | 0.00 | 57 | 1020.6 |
| 20260831034003 | 62 | 322 | 0.0 | 2.0 | 0.00 | 0.00 | 0.00 | 58 | 1020.5 |
| 20260831033503 | 62 | 0 | 0.0 | 0.0 | 0.00 | 0.00 | 0.00 | 58 | 1020.7 |
| 20260831033213 | 62 | 0 | 0.0 | 0.0 | 0.00 | 0.00 | 0.00 | 59 | 1020.6 |
| 20260831032503 | 62 | 0 | 0.0 | 0.0 | 0.00 | 0.00 | 0.00 | 59 | 1020.8 |
| 20260831032003 | 63 | 0 | 0.0 | 0.0 | 0.00 | 0.00 | 0.00 | 59 | 1020.8 |
| 20260831031503 | 63 | 323 | 0.0 | 2.0 | 0.00 | 0.00 | 0.00 | 59 | 1020.6 |
| 20260831031003 | 63 | 316 | 1.0 | 2.0 | 0.00 | 0.00 | 0.00 | 59 | 1020.6 |
| 20260831030503 | 63 | 287 | 0.0 | 4.0 | 0.00 | 0.00 | 0.00 | 59 | 1020.6 |
| 20260831030003 | 63 | 278 | 1.0 | 4.0 | 0.00 | 0.00 | 0.00 | 59 | 1020.7 |
| 20260831025503 | 63 | 277 | 0.0 | 3.0 | 0.00 | 0.00 | 0.00 | 60 | 1020.6 |
| 20260831025003 | 63 | 277 | 0.0 | 2.0 | 0.00 | 0.00 | 0.00 | 60 | 1020.6 |
| 20260831024714 | 63 | 0 | 0.0 | 0.0 | 0.00 | 0.00 | 0.00 | 60 | 1020.5 |
| 20260831024003 | 63 | 0 | 0.0 | 0.0 | 0.00 | 0.00 | 0.00 | 60 | 1020.6 |
| 20260831023503 | 63 | 277 | 0.0 | 1.0 | 0.00 | 0.00 | 0.00 | 60 | 1020.6 |
| 20260831023003 | 63 | 277 | 0.0 | 1.0 | 0.00 | 0.00 | 0.00 | 60 | 1020.8 |
| 20260831022714 | 63 | 277 | 0.0 | 3.0 | 0.00 | 0.00 | 0.00 | 61 | 1020.7 |
| 20260831022213 | 63 | 278 | 1.0 | 6.0 | 0.00 | 0.00 | 0.00 | 61 | 1020.7 |
| 20260831021713 | 63 | 276 | 1.0 | 6.0 | 0.00 | 0.00 | 0.00 | 61 | 1020.7 |
| 20260831021003 | 63 | 258 | 1.0 | 6.0 | 0.00 | 0.00 | 0.00 | 61 | 1020.6 |
| 20260831020503 | 63 | 261 | 2.0 | 6.0 | 0.00 | 0.00 | 0.00 | 61 | 1020.7 |
| 20260831020003 | 63 | 270 | 1.0 | 4.0 | 0.00 | 0.00 | 0.00 | 62 | 1020.7 |
| 20260831015713 | 63 | 270 | 1.0 | 3.0 | 0.00 | 0.00 | 0.00 | 62 | 1020.8 |
| 20260831015003 | 63 | 273 | 0.0 | 2.0 | 0.00 | 0.00 | 0.00 | 62 | 1020.8 |
| 20260831014713 | 63 | 273 | 0.0 | 3.0 | 0.00 | 0.00 | 0.00 | 62 | 1020.8 |
| 20260831014003 | 63 | 274 | 0.0 | 3.0 | 0.00 | 0.00 | 0.00 | 62 | 1020.7 |
| 20260831013713 | 64 | 270 | 0.0 | 3.0 | 0.00 | 0.00 | 0.00 | 62 | 1020.7 |
| 20260831013003 | 64 | 224 | 1.0 | 3.0 | 0.00 | 0.00 | 0.00 | 61 | 1020.5 |
| 20260831012503 | 64 | 230 | 1.0 | 4.0 | 0.00 | 0.00 | 0.00 | 62 | 1020.7 |
| 20260831012003 | 64 | 226 | 1.0 | 4.0 | 0.00 | 0.00 | 0.00 | 62 | 1020.7 |
| 20260831011503 | 64 | 211 | 2.0 | 6.0 | 0.00 | 0.00 | 0.00 | 62 | 1020.7 |
| 20260831011214 | 64 | 204 | 2.0 | 6.0 | 0.00 | 0.00 | 0.00 | 62 | 1020.6 |
| 20260831010503 | 64 | 190 | 3.0 | 5.0 | 0.00 | 0.00 | 0.00 | 62 | 1020.3 |
| 20260831010003 | 64 | 189 | 2.0 | 6.0 | 0.00 | 0.00 | 0.00 | 62 | 1020.4 |
| 20260831005503 | 64 | 193 | 1.0 | 6.0 | 0.00 | 0.00 | 0.00 | 62 | 1020.4 |
| 20260831005003 | 64 | 201 | 0.0 | 2.0 | 0.00 | 0.00 | 0.00 | 63 | 1020.5 |
| 20260831004503 | 64 | 0 | 0.0 | 0.0 | 0.00 | 0.00 | 0.00 | 63 | 1020.3 |
| 20260831004003 | 64 | 211 | 0.0 | 4.0 | 0.00 | 0.00 | 0.00 | 63 | 1020.3 |
| 20260831003503 | 64 | 211 | 0.0 | 4.0 | 0.00 | 0.00 | 0.00 | 63 | 1020.1 |
| 20260831003003 | 64 | 262 | 0.0 | 2.0 | 0.00 | 0.00 | 0.00 | 63 | 1019.9 |
| 20260831002503 | 64 | 216 | 1.0 | 5.0 | 0.00 | 0.00 | 0.00 | 64 | 1019.9 |
| 20260831002003 | 64 | 200 | 2.0 | 6.0 | 0.00 | 0.00 | 0.00 | 64 | 1019.8 |
| 20260831001503 | 65 | 196 | 2.0 | 6.0 | 0.00 | 0.00 | 0.00 | 63 | 1019.8 |
| 20260831001003 | 65 | 196 | 0.0 | 3.0 | 0.00 | 0.00 | 0.00 | 63 | 1019.8 |
| 20260831000503 | 65 | 226 | 0.0 | 2.0 | 0.00 | 0.00 | 0.00 | 63 | 1019.9 |
| 20260831000214 | 66 | 215 | 1.0 | 4.0 | 0.00 | 0.00 | 0.00 | 62 | 1019.9 |
| 20260830235503 | 66 | 212 | 0.0 | 4.0 | 0.00 | 0.00 | 0.00 | 62 | 1019.8 |
| 20260830235003 | 66 | 0 | 0.0 | 0.0 | 0.00 | 0.00 | 0.00 | 62 | 1019.7 |
| 20260830234503 | 66 | 0 | 0.0 | 0.0 | 0.00 | 0.00 | 0.00 | 61 | 1019.6 |